Location: Campillo
(40.8621°N, 4.2488°W)
Time: 17:02:50
(UTC+00:00)

ATLAS 5 CENTAUR R/B - Visible Passes

Search period start: 26 September 2021 00:00
Search period end: 06 October 2021 00:00
Orbit: 509 x 1148 km, 63.4° (Epoch: 20 September)

Date Brightness Start Highest point End Pass type
(mag) Time Alt. Az. Time Alt. Az. Time Alt. Az.
30 Sep 4.7 05:31:45 10° N 05:33:49 12° NNE 05:36:00 10° NE visible
01 Oct 4.8 05:12:34 10° NNE 05:14:19 11° NNE 05:16:10 10° NE visible
02 Oct 4.9 04:53:27 10° NNE 04:54:50 11° NNE 04:56:15 10° NE visible
03 Oct 5.0 04:34:30 10° NNE 04:35:20 10° NNE 04:36:11 10° NE visible
05 Oct 3.9 05:37:19 10° NNW 05:42:27 36° NE 05:48:24 10° ESE visible
